Time,TemperatureF,DewpointF,PressureIn,WindDirection,WindDirectionDegrees,WindSpeedMPH,WindSpeedGustMPH,Humidity,HourlyPrecipIn,Conditions,Clouds,dailyrainin,SoftwareType,DateUTC
2013-05-31 00:05:00,70.7,65.0,30.04,WSW,251,0.0,6.0,81,0.00,,,0.00,weatherlink.com 1.10,2013-05-31 04:05:00,
2013-05-31 00:21:00,70.9,65.0,30.04,SW,224,1.0,4.0,81,0.00,,,0.00,weatherlink.com 1.10,2013-05-31 04:21:00,
2013-05-31 00:38:00,70.7,65.0,30.04,SW,233,5.0,7.0,81,0.00,,,0.00,weatherlink.com 1.10,2013-05-31 04:38:00,
2013-05-31 00:54:00,70.7,64.0,30.04,SW,224,2.0,4.0,80,0.00,,,0.00,weatherlink.com 1.10,2013-05-31 04:54:00,
2013-05-31 01:10:00,71.7,64.0,30.04,SW,232,1.0,6.0,77,0.00,,,0.00,weatherlink.com 1.10,2013-05-31 05:10:00,
2013-05-31 01:26:00,71.8,64.0,30.04,WSW,244,2.0,6.0,76,0.00,,,0.00,weatherlink.com 1.10,2013-05-31 05:26:00,
2013-05-31 01:43:00,71.5,64.0,30.04,SSW,212,3.0,6.0,77,0.00,,,0.00,weatherlink.com 1.10,2013-05-31 05:43:00,
2013-05-31 01:59:00,71.1,64.0,30.04,SSE,166,3.0,8.0,78,0.00,,,0.00,weatherlink.com 1.10,2013-05-31 05:59:00,
2013-05-31 02:15:00,71.3,64.0,30.04,WSW,246,3.0,7.0,77,0.00,,,0.00,weatherlink.com 1.10,2013-05-31 06:15:00,
2013-05-31 02:31:00,71.3,63.0,30.04,SSW,206,2.0,11.0,76,0.00,,,0.00,weatherlink.com 1.10,2013-05-31 06:31:00,
2013-05-31 02:47:00,71.5,63.0,30.04,SW,231,2.0,9.0,74,0.00,,,0.00,weatherlink.com 1.10,2013-05-31 06:47:00,
2013-05-31 03:04:00,70.8,63.0,30.04,SSE,163,1.0,5.0,76,0.00,,,0.00,weatherlink.com 1.10,2013-05-31 07:04:00,
2013-05-31 03:20:00,68.6,63.0,30.04,West,268,0.0,3.0,81,0.00,,,0.00,weatherlink.com 1.10,2013-05-31 07:20:00,
2013-05-31 03:36:00,68.1,62.0,30.04,NE,38,1.0,1.0,82,0.00,,,0.00,weatherlink.com 1.10,2013-05-31 07:36:00,
2013-05-31 03:52:00,69.0,62.0,30.04,WSW,254,1.0,6.0,78,0.00,,,0.00,weatherlink.com 1.10,2013-05-31 07:52:00,
2013-05-31 04:09:00,70.5,62.0,30.04,WSW,248,0.0,5.0,74,0.00,,,0.00,weatherlink.com 1.10,2013-05-31 08:09:00,
2013-05-31 04:25:00,71.6,61.0,30.04,WSW,237,4.0,7.0,69,0.00,,,0.00,weatherlink.com 1.10,2013-05-31 08:25:00,
2013-05-31 04:41:00,72.5,61.0,30.04,SW,231,4.0,8.0,67,0.00,,,0.00,weatherlink.com 1.10,2013-05-31 08:41:00,
2013-05-31 04:57:00,72.7,61.0,30.04,SW,223,7.0,8.0,67,0.00,,,0.00,weatherlink.com 1.10,2013-05-31 08:57:00,
2013-05-31 05:14:00,72.8,62.0,30.04,SSW,211,0.0,8.0,68,0.00,,,0.00,weatherlink.com 1.10,2013-05-31 09:14:00,
2013-05-31 05:30:00,72.5,62.0,30.05,West,276,0.0,9.0,69,0.00,,,0.00,weatherlink.com 1.10,2013-05-31 09:30:00,
2013-05-31 05:46:00,72.6,61.0,30.05,West,273,4.0,8.0,68,0.00,,,0.00,weatherlink.com 1.10,2013-05-31 09:46:00,
2013-05-31 06:02:00,72.4,62.0,30.05,NW,317,1.0,9.0,69,0.00,,,0.00,weatherlink.com 1.10,2013-05-31 10:02:00,
2013-05-31 06:18:00,72.8,62.0,30.06,SW,217,2.0,9.0,69,0.00,,,0.00,weatherlink.com 1.10,2013-05-31 10:18:00,
2013-05-31 06:35:00,72.5,63.0,30.06,NNE,32,2.0,4.0,71,0.00,,,0.00,weatherlink.com 1.10,2013-05-31 10:35:00,
2013-05-31 06:51:00,72.9,63.0,30.06,WSW,246,1.0,9.0,72,0.00,,,0.00,weatherlink.com 1.10,2013-05-31 10:51:00,
2013-05-31 07:07:00,73.8,64.0,30.07,SSW,194,3.0,9.0,71,0.00,,,0.00,weatherlink.com 1.10,2013-05-31 11:07:00,
2013-05-31 07:24:00,73.9,64.0,30.07,SW,231,3.0,9.0,71,0.00,,,0.00,weatherlink.com 1.10,2013-05-31 11:24:00,
2013-05-31 07:40:00,74.1,64.0,30.06,SW,231,2.0,6.0,72,0.00,,,0.00,weatherlink.com 1.10,2013-05-31 11:40:00,
2013-05-31 07:57:00,74.5,64.0,30.06,WNW,296,2.0,12.0,71,0.00,,,0.00,weatherlink.com 1.10,2013-05-31 11:57:00,
2013-05-31 08:13:00,75.0,65.0,30.06,WNW,295,3.0,7.0,71,0.00,,,0.00,weatherlink.com 1.10,2013-05-31 12:13:00,
2013-05-31 08:29:00,75.4,65.0,30.06,SW,214,9.0,9.0,71,0.00,,,0.00,weatherlink.com 1.10,2013-05-31 12:29:00,
2013-05-31 08:45:00,76.1,66.0,30.06,SW,215,5.0,8.0,72,0.00,,,0.00,weatherlink.com 1.10,2013-05-31 12:45:00,
2013-05-31 09:01:00,76.6,66.0,30.06,SSW,208,3.0,11.0,71,0.00,,,0.00,weatherlink.com 1.10,2013-05-31 13:01:00,
2013-05-31 09:18:00,77.3,67.0,30.06,WSW,246,6.0,10.0,71,0.00,,,0.00,weatherlink.com 1.10,2013-05-31 13:18:00,
2013-05-31 09:34:00,78.1,67.0,30.05,SW,230,11.0,11.0,69,0.00,,,0.00,weatherlink.com 1.10,2013-05-31 13:34:00,
2013-05-31 09:50:00,79.1,67.0,30.05,WSW,241,1.0,11.0,66,0.00,,,0.00,weatherlink.com 1.10,2013-05-31 13:50:00,
2013-05-31 10:07:00,80.3,67.0,30.04,SW,218,3.0,7.0,64,0.00,,,0.00,weatherlink.com 1.10,2013-05-31 14:07:00,
2013-05-31 10:23:00,80.9,66.0,30.04,NNW,346,4.0,9.0,60,0.00,,,0.00,weatherlink.com 1.10,2013-05-31 14:23:00,
2013-05-31 10:39:00,80.8,66.0,30.04,North,9,8.0,14.0,60,0.00,,,0.00,weatherlink.com 1.10,2013-05-31 14:39:00,
2013-05-31 10:55:00,81.4,65.0,30.04,West,272,4.0,10.0,58,0.00,,,0.00,weatherlink.com 1.10,2013-05-31 14:55:00,
2013-05-31 11:11:00,81.6,65.0,30.04,WSW,256,8.0,10.0,58,0.00,,,0.00,weatherlink.com 1.10,2013-05-31 15:11:00,
2013-05-31 11:28:00,81.9,66.0,30.03,NE,43,6.0,9.0,58,0.00,,,0.00,weatherlink.com 1.10,2013-05-31 15:28:00,
2013-05-31 11:44:00,82.5,66.0,30.02,WSW,256,2.0,8.0,58,0.00,,,0.00,weatherlink.com 1.10,2013-05-31 15:44:00,
2013-05-31 12:00:00,82.5,65.0,30.02,WNW,292,7.0,7.0,56,0.00,,,0.00,weatherlink.com 1.10,2013-05-31 16:00:00,
2013-05-31 12:16:00,83.3,66.0,30.02,SW,231,6.0,10.0,57,0.00,,,0.00,weatherlink.com 1.10,2013-05-31 16:16:00,
2013-05-31 12:33:00,84.8,65.0,30.01,NW,310,1.0,11.0,52,0.00,,,0.00,weatherlink.com 1.10,2013-05-31 16:33:00,
2013-05-31 12:49:00,85.4,65.0,30.00,NNW,329,2.0,8.0,51,0.00,,,0.00,weatherlink.com 1.10,2013-05-31 16:49:00,
2013-05-31 13:05:00,85.3,65.0,30.00,WNW,296,6.0,7.0,50,0.00,,,0.00,weatherlink.com 1.10,2013-05-31 17:05:00,
2013-05-31 13:21:00,86.1,66.0,29.99,West,264,1.0,9.0,52,0.00,,,0.00,weatherlink.com 1.10,2013-05-31 17:21:00,
2013-05-31 13:38:00,85.5,67.0,29.99,North,350,3.0,6.0,54,0.00,,,0.00,weatherlink.com 1.10,2013-05-31 17:38:00,
2013-05-31 13:54:00,86.6,63.0,29.99,WNW,298,3.0,10.0,46,0.00,,,0.00,weatherlink.com 1.10,2013-05-31 17:54:00,
2013-05-31 14:10:00,86.8,62.0,29.98,ENE,72,3.0,9.0,44,0.00,,,0.00,weatherlink.com 1.10,2013-05-31 18:10:00,
2013-05-31 14:26:00,87.4,62.0,29.98,West,266,2.0,6.0,43,0.00,,,0.00,weatherlink.com 1.10,2013-05-31 18:26:00,
2013-05-31 14:43:00,86.7,62.0,29.98,ENE,57,4.0,6.0,43,0.00,,,0.00,weatherlink.com 1.10,2013-05-31 18:43:00,
2013-05-31 14:59:00,86.8,60.0,29.98,North,354,6.0,11.0,40,0.00,,,0.00,weatherlink.com 1.10,2013-05-31 18:59:00,
2013-05-31 15:15:00,87.1,60.0,29.96,West,276,1.0,7.0,40,0.00,,,0.00,weatherlink.com 1.10,2013-05-31 19:15:00,
2013-05-31 15:31:00,88.3,60.0,29.95,South,183,1.0,9.0,39,0.00,,,0.00,weatherlink.com 1.10,2013-05-31 19:31:00,
2013-05-31 15:48:00,88.5,61.0,29.95,SSW,194,6.0,9.0,40,0.00,,,0.00,weatherlink.com 1.10,2013-05-31 19:48:00,
2013-05-31 16:04:00,89.2,64.0,29.95,WSW,237,6.0,8.0,43,0.00,,,0.00,weatherlink.com 1.10,2013-05-31 20:04:00,
2013-05-31 16:20:00,88.7,62.0,29.94,NW,320,2.0,8.0,41,0.00,,,0.00,weatherlink.com 1.10,2013-05-31 20:20:00,
2013-05-31 16:37:00,88.6,63.0,29.94,WSW,256,2.0,8.0,43,0.00,,,0.00,weatherlink.com 1.10,2013-05-31 20:37:00,
2013-05-31 16:53:00,89.4,63.0,29.93,WSW,241,3.0,8.0,41,0.00,,,0.00,weatherlink.com 1.10,2013-05-31 20:53:00,
2013-05-31 17:09:00,89.2,57.0,29.93,NW,307,5.0,11.0,34,0.00,,,0.00,weatherlink.com 1.10,2013-05-31 21:09:00,
2013-05-31 17:25:00,89.3,59.0,29.93,SE,142,2.0,13.0,36,0.00,,,0.00,weatherlink.com 1.10,2013-05-31 21:25:00,
2013-05-31 17:42:00,89.1,58.0,29.92,West,267,4.0,10.0,35,0.00,,,0.00,weatherlink.com 1.10,2013-05-31 21:42:00,
2013-05-31 17:58:00,87.8,55.0,29.91,SW,230,5.0,13.0,33,0.00,,,0.00,weatherlink.com 1.10,2013-05-31 21:58:00,
2013-05-31 18:14:00,88.1,58.0,29.91,SW,220,2.0,8.0,36,0.00,,,0.00,weatherlink.com 1.10,2013-05-31 22:14:00,
2013-05-31 18:30:00,87.5,59.0,29.91,WSW,246,3.0,12.0,38,0.00,,,0.00,weatherlink.com 1.10,2013-05-31 22:30:00,
2013-05-31 18:47:00,87.1,60.0,29.91,NNW,344,4.0,11.0,40,0.00,,,0.00,weatherlink.com 1.10,2013-05-31 22:47:00,
2013-05-31 19:03:00,86.7,61.0,29.91,SSE,147,1.0,7.0,42,0.00,,,0.00,weatherlink.com 1.10,2013-05-31 23:03:00,
2013-05-31 19:19:00,87.0,62.0,29.91,West,260,1.0,3.0,43,0.00,,,0.00,weatherlink.com 1.10,2013-05-31 23:19:00,
2013-05-31 19:35:00,86.4,63.0,29.90,NE,46,2.0,3.0,45,0.00,,,0.00,weatherlink.com 1.10,2013-05-31 23:35:00,
2013-05-31 19:51:00,84.6,63.0,29.91,West,261,2.0,5.0,48,0.00,,,0.00,weatherlink.com 1.10,2013-05-31 23:51:00,
2013-05-31 20:08:00,82.8,63.0,29.91,SSW,208,2.0,4.0,51,0.00,,,0.00,weatherlink.com 1.10,2013-06-01 00:08:00,
2013-05-31 20:24:00,80.9,63.0,29.92,West,264,2.0,5.0,54,0.00,,,0.00,weatherlink.com 1.10,2013-06-01 00:24:00,
2013-05-31 20:40:00,80.0,62.0,29.92,SSW,197,0.0,3.0,55,0.00,,,0.00,weatherlink.com 1.10,2013-06-01 00:40:00,
2013-05-31 20:56:00,79.5,62.0,29.92,SW,225,1.0,3.0,56,0.00,,,0.00,weatherlink.com 1.10,2013-06-01 00:56:00,
2013-05-31 21:13:00,79.1,63.0,29.92,South,189,2.0,4.0,57,0.00,,,0.00,weatherlink.com 1.10,2013-06-01 01:13:00,
2013-05-31 21:29:00,78.7,63.0,29.92,West,277,3.0,3.0,58,0.00,,,0.00,weatherlink.com 1.10,2013-06-01 01:29:00,
2013-05-31 21:45:00,78.9,63.0,29.93,West,260,2.0,6.0,58,0.00,,,0.00,weatherlink.com 1.10,2013-06-01 01:45:00,
2013-05-31 22:01:00,79.0,63.0,29.93,West,271,1.0,5.0,59,0.00,,,0.00,weatherlink.com 1.10,2013-06-01 02:01:00,
2013-05-31 22:17:00,79.0,63.0,29.93,WSW,238,5.0,7.0,59,0.00,,,0.00,weatherlink.com 1.10,2013-06-01 02:17:00,
2013-05-31 22:34:00,79.2,64.0,29.93,SW,215,2.0,9.0,59,0.00,,,0.00,weatherlink.com 1.10,2013-06-01 02:34:00,
2013-05-31 22:50:00,79.0,64.0,29.93,SW,217,1.0,10.0,60,0.00,,,0.00,weatherlink.com 1.10,2013-06-01 02:50:00,
2013-05-31 23:06:00,78.6,64.0,29.93,SSW,201,3.0,10.0,61,0.00,,,0.00,weatherlink.com 1.10,2013-06-01 03:06:00,
2013-05-31 23:22:00,78.3,64.0,29.93,South,169,3.0,7.0,62,0.00,,,0.00,weatherlink.com 1.10,2013-06-01 03:22:00,
2013-05-31 23:39:00,77.0,64.0,29.93,West,265,1.0,4.0,65,0.00,,,0.00,weatherlink.com 1.10,2013-06-01 03:39:00,
2013-05-31 23:55:00,76.2,64.0,29.92,SW,228,0.0,5.0,67,0.00,,,0.00,weatherlink.com 1.10,2013-06-01 03:55:00,